Location: Centerville
(32.8776°N, 96.6203°W)
Time: 02:12:19
(UTC+00:00)

Okean 2 - Pass Details

Date: 17 June 2021
Orbit: 560 x 575 km, 82.5° (Epoch: 27 July)

Event Time Altitude Azimuth Distance (km) Brightness Sun altitude
Exits shadow 03:01:25 - 194° (SSW) 2,229 6.1 -15.3°
Reaches altitude 10° 03:02:21 10° 196° (SSW) 1,852 5.7 -15.5°
Maximum altitude 03:06:23 62° 277° (W) 636 3.8 -16.1°
Drops below altitude 10° 03:10:26 10° 359° (N) 1,857 6.6 -16.7°
Sets 03:12:38 0° 3° (N) 2,755 7.5 -17.1°
